| time (UTC) | temp F | wind direction | speed knots | gust knots | rain 1hr in | rain 24hr in | rain mn in | humidity % | barometer mb |
| 20260506124057 | 51 | 360 | 4.3 | 9.6 | 0.00 | 0.86 | 0.86 | 94 | 1006.4 |
| 20260506123557 | 51 | 360 | 2.6 | 8.7 | 0.00 | 0.86 | 0.86 | 94 | 1006.4 |
| 20260506123055 | 51 | 360 | 4.3 | 9.6 | 0.00 | 0.86 | 0.86 | 94 | 1006.4 |
| 20260506122557 | 51 | 360 | 5.2 | 9.6 | 0.00 | 0.86 | 0.86 | 94 | 1006.3 |
| 20260506122057 | 51 | 360 | 4.3 | 9.6 | 0.00 | 0.85 | 0.85 | 94 | 1006.4 |
| 20260506121558 | 51 | 360 | 3.5 | 7.8 | 0.00 | 0.85 | 0.85 | 94 | 1006.4 |
| 20260506121057 | 51 | 360 | 3.5 | 7.8 | 0.00 | 0.85 | 0.85 | 94 | 1006.4 |
| 20260506120602 | 51 | 360 | 1.7 | 7.0 | 0.00 | 0.85 | 0.85 | 94 | 1006.4 |
| 20260506115558 | 50 | 360 | 4.3 | 10.4 | 0.00 | 0.85 | 0.85 | 93 | 1006.3 |
| 20260506115058 | 50 | 360 | 2.6 | 10.4 | 0.00 | 0.85 | 0.85 | 93 | 1006.2 |
| 20260506114559 | 50 | 360 | 3.5 | 10.4 | 0.00 | 0.85 | 0.85 | 94 | 1006.2 |
| 20260506114058 | 50 | 360 | 2.6 | 8.7 | 0.00 | 0.85 | 0.85 | 94 | 1006.2 |
| 20260506113557 | 50 | 360 | 4.3 | 10.4 | 0.00 | 0.85 | 0.85 | 94 | 1006.2 |
| 20260506113057 | 50 | 360 | 3.5 | 10.4 | 0.00 | 0.85 | 0.85 | 93 | 1006.3 |
| 20260506112558 | 50 | 360 | 4.3 | 9.6 | 0.00 | 0.85 | 0.85 | 94 | 1006.3 |
| 20260506112057 | 50 | 360 | 3.5 | 7.8 | 0.00 | 0.85 | 0.85 | 93 | 1006.3 |
| 20260506111602 | 50 | 360 | 2.6 | 10.4 | 0.00 | 0.85 | 0.85 | 93 | 1006.3 |
| 20260506111100 | 50 | 360 | 4.3 | 10.4 | 0.00 | 0.85 | 0.85 | 93 | 1006.4 |
| 20260506110557 | 50 | 360 | 6.1 | 10.4 | 0.00 | 0.85 | 0.85 | 93 | 1006.4 |
| 20260506110057 | 50 | 360 | 5.2 | 10.4 | 0.00 | 0.85 | 0.85 | 93 | 1006.3 |
| 20260506105557 | 50 | 360 | 4.3 | 9.6 | 0.00 | 0.85 | 0.85 | 93 | 1006.2 |
| 20260506105100 | 50 | 360 | 4.3 | 11.3 | 0.00 | 0.85 | 0.85 | 94 | 1006.2 |
| 20260506104604 | 50 | 360 | 5.2 | 12.2 | 0.00 | 0.85 | 0.85 | 94 | 1006.3 |
| 20260506104101 | 50 | 360 | 4.3 | 12.2 | 0.00 | 0.85 | 0.85 | 94 | 1006.2 |
| 20260506103557 | 50 | 360 | 6.1 | 10.4 | 0.00 | 0.85 | 0.85 | 94 | 1006.2 |
| 20260506103055 | 49 | 360 | 3.5 | 9.6 | 0.00 | 0.85 | 0.85 | 94 | 1006.2 |
| 20260506102601 | 49 | 360 | 3.5 | 9.6 | 0.00 | 0.85 | 0.85 | 94 | 1006.3 |
| 20260506102058 | 49 | 360 | 3.5 | 7.8 | 0.00 | 0.85 | 0.85 | 94 | 1006.2 |
| 20260506101601 | 49 | 360 | 2.6 | 7.0 | 0.00 | 0.85 | 0.85 | 94 | 1006.2 |
| 20260506101057 | 49 | 360 | 1.7 | 7.8 | 0.00 | 0.85 | 0.85 | 94 | 1006.2 |
| 20260506100557 | 49 | 360 | 3.5 | 7.8 | 0.00 | 0.85 | 0.85 | 94 | 1006.2 |
| 20260506100109 | 49 | 360 | 4.3 | 8.7 | 0.00 | 0.85 | 0.85 | 94 | 1006.2 |
| 20260506095559 | 49 | 360 | 3.5 | 8.7 | 0.00 | 0.85 | 0.85 | 94 | 1006.2 |
| 20260506095101 | 49 | 360 | 4.3 | 10.4 | 0.00 | 0.85 | 0.85 | 94 | 1006.2 |
| 20260506094556 | 49 | 360 | 4.3 | 10.4 | 0.00 | 0.85 | 0.85 | 94 | 1006.1 |
| 20260506094057 | 49 | 360 | 5.2 | 10.4 | 0.00 | 0.85 | 0.85 | 94 | 1006.2 |
| 20260506093556 | 49 | 360 | 3.5 | 10.4 | 0.00 | 0.85 | 0.85 | 94 | 1006.1 |
| 20260506093059 | 49 | 360 | 4.3 | 10.4 | 0.00 | 0.85 | 0.85 | 94 | 1006.1 |
| 20260506092557 | 49 | 360 | 4.3 | 9.6 | 0.00 | 0.85 | 0.85 | 94 | 1006.0 |
| 20260506092059 | 49 | 360 | 4.3 | 9.6 | 0.00 | 0.85 | 0.85 | 94 | 1006.0 |
| 20260506091558 | 49 | 360 | 4.3 | 8.7 | 0.00 | 0.85 | 0.85 | 94 | 1006.0 |
| 20260506091057 | 49 | 360 | 3.5 | 8.7 | 0.00 | 0.85 | 0.85 | 94 | 1005.9 |
| 20260506090558 | 48 | 360 | 4.3 | 7.8 | 0.00 | 0.85 | 0.85 | 94 | 1005.9 |
| 20260506090101 | 48 | 360 | 3.5 | 7.8 | 0.00 | 0.85 | 0.85 | 94 | 1005.9 |
| 20260506085557 | 48 | 360 | 4.3 | 7.8 | 0.00 | 0.85 | 0.85 | 94 | 1005.9 |
| 20260506085057 | 48 | 360 | 4.3 | 7.8 | 0.00 | 0.85 | 0.85 | 94 | 1005.9 |
| 20260506084603 | 48 | 360 | 2.6 | 7.8 | 0.01 | 0.85 | 0.85 | 94 | 1006.0 |
| 20260506084058 | 48 | 360 | 2.6 | 7.8 | 0.00 | 0.84 | 0.84 | 94 | 1005.9 |
| 20260506083557 | 48 | 360 | 4.3 | 7.8 | 0.00 | 0.84 | 0.84 | 94 | 1005.8 |
| 20260506083056 | 48 | 360 | 3.5 | 7.8 | 0.01 | 0.84 | 0.84 | 94 | 1005.8 |
| 20260506082557 | 48 | 360 | 1.7 | 7.8 | 0.01 | 0.84 | 0.84 | 94 | 1005.8 |
| 20260506082057 | 48 | 360 | 3.5 | 7.8 | 0.01 | 0.84 | 0.84 | 94 | 1005.8 |
| 20260506081558 | 48 | 360 | 3.5 | 10.4 | 0.02 | 0.84 | 0.84 | 94 | 1005.7 |
| 20260506081057 | 48 | 360 | 2.6 | 10.4 | 0.03 | 0.84 | 0.84 | 95 | 1005.7 |
| 20260506080557 | 48 | 360 | 5.2 | 9.6 | 0.03 | 0.84 | 0.84 | 95 | 1005.7 |
| 20260506073057 | 48 | 360 | 2.6 | 7.8 | 0.05 | 0.82 | 0.82 | 95 | 1005.7 |
| 20260506072556 | 48 | 360 | 2.6 | 7.8 | 0.06 | 0.82 | 0.82 | 94 | 1005.7 |
| 20260506072057 | 48 | 360 | 0.9 | 7.0 | 0.07 | 0.82 | 0.82 | 95 | 1005.6 |
| 20260506071600 | 48 | 360 | 2.6 | 7.8 | 0.07 | 0.81 | 0.81 | 94 | 1005.6 |
| 20260506071057 | 47 | 360 | 2.6 | 7.8 | 0.07 | 0.81 | 0.81 | 94 | 1005.6 |
| 20260506070600 | 47 | 360 | 2.6 | 7.8 | 0.07 | 0.81 | 0.81 | 94 | 1005.6 |
| 20260506062057 | 47 | 360 | 2.6 | 7.0 | 0.11 | 0.76 | 0.75 | 94 | 1005.4 |
| 20260506061559 | 47 | 360 | 2.6 | 7.0 | 0.11 | 0.75 | 0.74 | 94 | 1005.4 |
| 20260506061057 | 48 | 360 | 1.7 | 5.2 | 0.11 | 0.74 | 0.74 | 94 | 1005.3 |
| 20260506060557 | 47 | 360 | 0.9 | 4.3 | 0.11 | 0.74 | 0.73 | 94 | 1005.2 |
| 20260506051057 | 48 | 360 | 3.5 | 7.8 | 0.06 | 0.66 | 0.62 | 94 | 1005.3 |
| 20260506050557 | 48 | 360 | 2.6 | 7.0 | 0.06 | 0.66 | 0.61 | 94 | 1005.3 |
| 20260506045057 | 48 | 360 | 1.7 | 7.0 | 0.08 | 0.65 | 0.60 | 94 | 1005.4 |
| 20260506044557 | 48 | 360 | 2.6 | 7.0 | 0.08 | 0.64 | 0.59 | 94 | 1005.4 |
| 20260506044057 | 48 | 360 | 2.6 | 5.2 | 0.08 | 0.63 | 0.59 | 94 | 1005.4 |
| 20260506043557 | 49 | 360 | 0.9 | 7.0 | 0.09 | 0.63 | 0.59 | 94 | 1005.4 |
| 20260506043057 | 49 | 360 | 1.7 | 7.0 | 0.09 | 0.62 | 0.58 | 94 | 1005.4 |
| 20260506042558 | 49 | 360 | 2.6 | 7.0 | 0.09 | 0.62 | 0.57 | 94 | 1005.5 |
| 20260506042058 | 49 | 360 | 0.9 | 5.2 | 0.08 | 0.61 | 0.56 | 94 | 1005.5 |
| 20260506041604 | 49 | 360 | 2.6 | 5.2 | 0.10 | 0.61 | 0.56 | 94 | 1005.5 |
| 20260506041058 | 49 | 360 | 2.6 | 4.3 | 0.10 | 0.60 | 0.55 | 94 | 1005.5 |
| 20260506040557 | 49 | 360 | 0.9 | 7.8 | 0.10 | 0.59 | 0.55 | 94 | 1005.6 |
| 20260506040109 | 49 | 0 | 1.7 | 7.8 | 0.10 | 0.58 | 0.53 | 94 | 1005.5 |
| 20260506035557 | 49 | 360 | 2.6 | 5.2 | 0.10 | 0.57 | 0.52 | 94 | 1005.5 |
| 20260506035057 | 49 | 360 | 1.7 | 5.2 | 0.10 | 0.56 | 0.51 | 94 | 1005.6 |
| 20260506034559 | 49 | 360 | 1.7 | 7.0 | 0.11 | 0.55 | 0.51 | 94 | 1005.6 |
| 20260506034056 | 49 | 360 | 1.7 | 7.0 | 0.11 | 0.55 | 0.50 | 94 | 1005.6 |
| 20260506033558 | 49 | 360 | 1.7 | 3.5 | 0.11 | 0.54 | 0.49 | 94 | 1005.7 |
| 20260506033057 | 49 | 360 | 0.9 | 3.5 | 0.13 | 0.53 | 0.48 | 94 | 1005.6 |
| 20260506032557 | 49 | 360 | 1.7 | 5.2 | 0.14 | 0.52 | 0.48 | 94 | 1005.6 |
| 20260506032058 | 49 | 360 | 1.7 | 5.2 | 0.16 | 0.51 | 0.47 | 94 | 1005.7 |
| 20260506031601 | 49 | 360 | 1.7 | 7.0 | 0.16 | 0.51 | 0.46 | 94 | 1005.7 |
| 20260506031057 | 49 | 360 | 2.6 | 7.0 | 0.18 | 0.50 | 0.45 | 94 | 1005.7 |
| 20260506030557 | 49 | 360 | 2.6 | 7.8 | 0.18 | 0.49 | 0.44 | 94 | 1005.7 |
| 20260506030107 | 49 | 360 | 1.7 | 7.8 | 0.17 | 0.48 | 0.43 | 94 | 1005.8 |
| 20260506025557 | 50 | 360 | 1.7 | 7.0 | 0.17 | 0.48 | 0.42 | 94 | 1005.8 |
| 20260506025056 | 50 | 360 | 3.5 | 7.8 | 0.17 | 0.47 | 0.41 | 94 | 1005.9 |
| 20260506024558 | 50 | 360 | 3.5 | 7.8 | 0.16 | 0.45 | 0.40 | 94 | 1006.0 |
| 20260506024056 | 50 | 360 | 1.7 | 5.2 | 0.15 | 0.44 | 0.38 | 94 | 1006.0 |
| 20260506023557 | 50 | 360 | 1.7 | 5.2 | 0.16 | 0.43 | 0.37 | 94 | 1006.0 |
| 20260506023054 | 50 | 360 | 1.7 | 8.7 | 0.14 | 0.40 | 0.35 | 94 | 1006.0 |
| 20260506022557 | 50 | 0 | 4.3 | 8.7 | 0.11 | 0.37 | 0.32 | 94 | 1006.1 |
| 20260506022056 | 50 | 360 | 2.6 | 8.7 | 0.11 | 0.36 | 0.30 | 94 | 1006.1 |
| 20260506021600 | 50 | 360 | 1.7 | 7.8 | 0.10 | 0.34 | 0.29 | 94 | 1006.2 |
| 20260506021056 | 50 | 360 | 2.6 | 7.8 | 0.09 | 0.33 | 0.27 | 94 | 1006.1 |
| 20260506020557 | 50 | 360 | 2.6 | 7.8 | 0.10 | 0.32 | 0.26 | 94 | 1006.1 |
| 20260506020054 | 50 | 360 | 2.6 | 7.8 | 0.10 | 0.31 | 0.25 | 94 | 1006.1 |
| 20260506015557 | 50 | 360 | 2.6 | 7.8 | 0.10 | 0.30 | 0.25 | 94 | 1006.2 |
| 20260506015057 | 50 | 360 | 3.5 | 8.7 | 0.10 | 0.29 | 0.24 | 94 | 1006.1 |
| 20260506014603 | 50 | 360 | 3.5 | 8.7 | 0.11 | 0.29 | 0.23 | 93 | 1006.2 |
| 20260506014056 | 50 | 360 | 1.7 | 7.8 | 0.11 | 0.28 | 0.22 | 93 | 1006.2 |
| 20260506013556 | 50 | 360 | 1.7 | 7.8 | 0.10 | 0.26 | 0.21 | 93 | 1006.2 |
| 20260506013055 | 50 | 360 | 1.7 | 7.8 | 0.10 | 0.25 | 0.20 | 93 | 1006.2 |
| 20260506012556 | 50 | 360 | 3.5 | 7.8 | 0.10 | 0.25 | 0.20 | 94 | 1006.3 |
| 20260506012059 | 51 | 360 | 1.7 | 7.8 | 0.10 | 0.25 | 0.19 | 94 | 1006.3 |
| 20260506011557 | 51 | 360 | 3.5 | 7.0 | 0.10 | 0.24 | 0.18 | 94 | 1006.3 |
| 20260506011056 | 51 | 360 | 3.5 | 7.8 | 0.09 | 0.23 | 0.18 | 93 | 1006.3 |
| 20260506010557 | 51 | 360 | 1.7 | 7.8 | 0.08 | 0.22 | 0.16 | 93 | 1006.3 |
| 20260506010105 | 51 | 360 | 2.6 | 7.8 | 0.07 | 0.21 | 0.15 | 93 | 1006.4 |
| 20260506005558 | 51 | 360 | 3.5 | 7.8 | 0.07 | 0.20 | 0.14 | 93 | 1006.4 |
| 20260506005056 | 51 | 360 | 3.5 | 9.6 | 0.07 | 0.19 | 0.14 | 93 | 1006.4 |
| 20260506004554 | 51 | 360 | 3.5 | 9.6 | 0.07 | 0.18 | 0.12 | 93 | 1006.4 |
| 20260506004056 | 51 | 360 | 1.7 | 7.0 | 0.06 | 0.17 | 0.11 | 93 | 1006.5 |
| 20260506003556 | 51 | 360 | 1.7 | 7.8 | 0.07 | 0.16 | 0.11 | 93 | 1006.5 |
| 20260506003054 | 51 | 360 | 1.7 | 10.4 | 0.07 | 0.15 | 0.10 | 93 | 1006.5 |
| 20260506002556 | 51 | 360 | 2.6 | 10.4 | 0.07 | 0.15 | 0.10 | 93 | 1006.6 |
| 20260506002057 | 51 | 360 | 4.3 | 7.8 | 0.07 | 0.14 | 0.09 | 93 | 1006.6 |
| 20260506001600 | 51 | 360 | 2.6 | 7.0 | 0.07 | 0.14 | 0.08 | 93 | 1006.6 |
| 20260506001057 | 51 | 360 | 2.6 | 7.0 | 0.07 | 0.14 | 0.08 | 93 | 1006.7 |
| 20260506000557 | 51 | 360 | 2.6 | 8.7 | 0.07 | 0.13 | 0.07 | 93 | 1006.7 |
| 20260506000100 | 51 | 360 | 2.6 | 10.4 | 0.07 | 0.12 | 0.07 | 93 | 1006.8 |
| 20260505235557 | 51 | 360 | 3.5 | 11.3 | 0.07 | 0.12 | 0.07 | 93 | 1006.8 |
| 20260505235057 | 51 | 360 | 4.3 | 11.3 | 0.06 | 0.11 | 0.06 | 93 | 1006.9 |
| 20260505234601 | 51 | 360 | 4.3 | 11.3 | 0.05 | 0.11 | 0.05 | 93 | 1006.9 |
| 20260505234057 | 51 | 360 | 2.6 | 7.8 | 0.05 | 0.11 | 0.05 | 93 | 1007.0 |
| 20260505233556 | 51 | 360 | 2.6 | 9.6 | 0.03 | 0.09 | 0.03 | 93 | 1007.0 |
| 20260505233114 | 51 | 360 | 4.3 | 9.6 | 0.03 | 0.08 | 0.03 | 92 | 1007.0 |
| 20260505232556 | 51 | 360 | 3.5 | 9.6 | 0.02 | 0.07 | 0.02 | 92 | 1007.2 |
| 20260505232056 | 51 | 360 | 4.3 | 9.6 | 0.01 | 0.07 | 0.01 | 92 | 1007.2 |
| 20260505231556 | 51 | 360 | 2.6 | 11.3 | 0.00 | 0.06 | 0.00 | 92 | 1007.2 |
| 20260505231056 | 51 | 360 | 3.5 | 11.3 | 0.00 | 0.06 | 0.00 | 92 | 1007.2 |
| 20260505230557 | 51 | 360 | 3.5 | 10.4 | 0.00 | 0.06 | 0.00 | 92 | 1007.3 |
| 20260505230104 | 51 | 360 | 3.5 | 10.4 | 0.00 | 0.05 | 0.00 | 92 | 1007.3 |
| 20260505225557 | 52 | 360 | 3.5 | 9.6 | 0.00 | 0.06 | 0.00 | 92 | 1007.3 |
| 20260505225057 | 52 | 360 | 1.7 | 8.7 | 0.00 | 0.06 | 0.00 | 92 | 1007.3 |
| 20260505224559 | 52 | 360 | 3.5 | 7.8 | 0.00 | 0.06 | 0.00 | 92 | 1007.3 |
| 20260505224101 | 52 | 360 | 2.6 | 7.0 | 0.00 | 0.06 | 0.00 | 92 | 1007.4 |
| 20260505223556 | 52 | 360 | 1.7 | 7.0 | 0.00 | 0.06 | 0.00 | 91 | 1007.3 |
| 20260505223057 | 52 | 360 | 1.7 | 7.8 | 0.00 | 0.06 | 0.00 | 91 | 1007.4 |
| 20260505222556 | 52 | 360 | 1.7 | 7.8 | 0.00 | 0.06 | 0.00 | 91 | 1007.4 |
| 20260505222056 | 52 | 360 | 2.6 | 7.8 | 0.00 | 0.06 | 0.00 | 91 | 1007.4 |
| 20260505221604 | 52 | 32 | 2.6 | 7.8 | 0.00 | 0.06 | 0.00 | 91 | 1007.4 |
| 20260505221100 | 52 | 55 | 2.6 | 7.8 | 0.00 | 0.06 | 0.00 | 91 | 1007.5 |
| 20260505220557 | 52 | 65 | 3.5 | 9.6 | 0.00 | 0.06 | 0.00 | 91 | 1007.5 |
| 20260505220057 | 52 | 60 | 5.2 | 9.6 | 0.00 | 0.06 | 0.00 | 91 | 1007.5 |
| 20260505215557 | 52 | 81 | 2.6 | 9.6 | 0.00 | 0.07 | 0.06 | 91 | 1007.5 |
| 20260505215058 | 52 | 54 | 4.3 | 9.6 | 0.00 | 0.07 | 0.06 | 91 | 1007.6 |
| 20260505214605 | 52 | 67 | 5.2 | 9.6 | 0.00 | 0.07 | 0.06 | 90 | 1007.7 |
| 20260505214057 | 52 | 40 | 2.6 | 9.6 | 0.00 | 0.07 | 0.06 | 90 | 1007.8 |
| 20260505213557 | 52 | 54 | 3.5 | 8.7 | 0.00 | 0.07 | 0.06 | 90 | 1007.7 |
| 20260505213104 | 52 | 15 | 3.5 | 8.7 | 0.00 | 0.07 | 0.06 | 90 | 1007.7 |
| 20260505212557 | 52 | 53 | 2.6 | 8.7 | 0.00 | 0.07 | 0.06 | 90 | 1007.8 |
| 20260505212056 | 52 | 57 | 2.6 | 10.4 | 0.00 | 0.07 | 0.06 | 91 | 1007.8 |
| 20260505211559 | 52 | 31 | 4.3 | 11.3 | 0.00 | 0.07 | 0.06 | 91 | 1007.8 |
| 20260505211057 | 52 | 21 | 4.3 | 11.3 | 0.00 | 0.07 | 0.06 | 90 | 1007.8 |
| 20260505210558 | 52 | 44 | 3.5 | 10.4 | 0.00 | 0.07 | 0.06 | 90 | 1007.8 |
| 20260505205556 | 52 | 21 | 4.3 | 9.6 | 0.00 | 0.11 | 0.06 | 90 | 1007.9 |
| 20260505205059 | 52 | 63 | 2.6 | 9.6 | 0.00 | 0.11 | 0.06 | 90 | 1007.9 |
| 20260505204558 | 52 | 44 | 2.6 | 10.4 | 0.00 | 0.11 | 0.06 | 90 | 1007.9 |
| 20260505204056 | 52 | 78 | 5.2 | 10.4 | 0.00 | 0.11 | 0.06 | 90 | 1008.0 |
| 20260505203557 | 52 | 42 | 3.5 | 9.6 | 0.00 | 0.11 | 0.06 | 90 | 1007.9 |
| 20260505203058 | 52 | 66 | 4.3 | 11.3 | 0.00 | 0.11 | 0.06 | 90 | 1008.0 |
| 20260505202557 | 52 | 49 | 3.5 | 11.3 | 0.00 | 0.11 | 0.06 | 90 | 1007.9 |
| 20260505202057 | 52 | 42 | 4.3 | 8.7 | 0.00 | 0.11 | 0.06 | 90 | 1007.9 |
| 20260505201555 | 52 | 27 | 2.6 | 10.4 | 0.00 | 0.11 | 0.06 | 90 | 1007.8 |
| 20260505201057 | 53 | 28 | 5.2 | 10.4 | 0.00 | 0.11 | 0.06 | 90 | 1007.9 |
| 20260505200558 | 53 | 56 | 2.6 | 9.6 | 0.00 | 0.11 | 0.06 | 90 | 1007.8 |
| 20260505200058 | 53 | 28 | 5.2 | 9.6 | 0.00 | 0.11 | 0.06 | 90 | 1007.9 |
| 20260505195556 | 53 | 16 | 4.3 | 9.6 | 0.00 | 0.25 | 0.06 | 90 | 1007.9 |
| 20260505195059 | 53 | 13 | 5.2 | 10.4 | 0.00 | 0.25 | 0.06 | 90 | 1007.9 |
| 20260505194600 | 53 | 34 | 4.3 | 10.4 | 0.00 | 0.25 | 0.06 | 90 | 1007.9 |
| 20260505194056 | 53 | 5 | 5.2 | 10.4 | 0.00 | 0.25 | 0.06 | 90 | 1007.9 |
| 20260505193557 | 53 | 339 | 2.6 | 10.4 | 0.00 | 0.25 | 0.06 | 90 | 1007.9 |
| 20260505193119 | 53 | 51 | 3.5 | 9.6 | 0.00 | 0.25 | 0.06 | 89 | 1007.9 |
| 20260505192557 | 53 | 36 | 3.5 | 8.7 | 0.00 | 0.25 | 0.06 | 89 | 1008.0 |
| 20260505192057 | 53 | 14 | 3.5 | 10.4 | 0.00 | 0.25 | 0.06 | 89 | 1007.9 |
| 20260505191605 | 53 | 44 | 4.3 | 10.4 | 0.00 | 0.25 | 0.06 | 89 | 1007.9 |
| 20260505191056 | 53 | 23 | 6.1 | 10.4 | 0.00 | 0.25 | 0.06 | 89 | 1007.9 |
| 20260505190556 | 54 | 38 | 2.6 | 7.8 | 0.00 | 0.25 | 0.06 | 89 | 1007.9 |
| 20260505190058 | 54 | 41 | 2.6 | 7.8 | 0.00 | 0.25 | 0.06 | 89 | 1007.9 |
| 20260505185557 | 54 | 31 | 2.6 | 10.4 | 0.00 | 0.33 | 0.06 | 89 | 1007.8 |
| 20260505185058 | 54 | 19 | 2.6 | 10.4 | 0.00 | 0.33 | 0.06 | 88 | 1007.9 |
| 20260505184601 | 54 | 38 | 4.3 | 10.4 | 0.00 | 0.33 | 0.06 | 88 | 1007.9 |
| 20260505184058 | 54 | 60 | 3.5 | 9.6 | 0.00 | 0.33 | 0.06 | 88 | 1007.9 |
| 20260505183556 | 54 | 43 | 3.5 | 9.6 | 0.00 | 0.33 | 0.06 | 88 | 1008.0 |
| 20260505183056 | 54 | 61 | 2.6 | 9.6 | 0.00 | 0.33 | 0.06 | 88 | 1007.9 |
| 20260505182556 | 54 | 36 | 3.5 | 10.4 | 0.00 | 0.33 | 0.06 | 87 | 1008.0 |
| 20260505182056 | 54 | 69 | 4.3 | 10.4 | 0.00 | 0.33 | 0.06 | 87 | 1008.0 |
| 20260505181556 | 55 | 340 | 4.3 | 8.7 | 0.00 | 0.33 | 0.06 | 87 | 1008.0 |
| 20260505181056 | 55 | 35 | 1.7 | 8.7 | 0.00 | 0.33 | 0.06 | 87 | 1008.0 |
| 20260505180556 | 55 | 41 | 3.5 | 9.6 | 0.00 | 0.33 | 0.06 | 87 | 1008.0 |
| 20260505180058 | 55 | 24 | 3.5 | 9.6 | 0.00 | 0.33 | 0.06 | 87 | 1008.0 |
| 20260505175556 | 55 | 47 | 2.6 | 7.0 | 0.00 | 0.33 | 0.06 | 87 | 1008.0 |
| 20260505175056 | 55 | 79 | 1.7 | 5.2 | 0.00 | 0.33 | 0.06 | 87 | 1008.0 |
| 20260505174556 | 55 | 0 | 1.7 | 9.6 | 0.00 | 0.33 | 0.06 | 87 | 1008.0 |
| 20260505174100 | 55 | 58 | 1.7 | 10.4 | 0.00 | 0.33 | 0.06 | 87 | 1008.0 |
| 20260505173557 | 55 | 46 | 3.5 | 10.4 | 0.00 | 0.33 | 0.06 | 87 | 1008.0 |
| 20260505173100 | 55 | 42 | 5.2 | 10.4 | 0.00 | 0.33 | 0.06 | 86 | 1008.0 |
| 20260505172556 | 55 | 28 | 4.3 | 7.8 | 0.00 | 0.33 | 0.06 | 86 | 1008.0 |
| 20260505172056 | 55 | 54 | 1.7 | 10.4 | 0.00 | 0.33 | 0.06 | 86 | 1008.0 |
| 20260505171559 | 56 | 23 | 4.3 | 10.4 | 0.00 | 0.33 | 0.06 | 86 | 1008.1 |
| 20260505171056 | 56 | 76 | 3.5 | 8.7 | 0.00 | 0.33 | 0.06 | 86 | 1008.1 |
| 20260505170557 | 56 | 19 | 3.5 | 8.7 | 0.00 | 0.33 | 0.06 | 85 | 1008.2 |
| 20260505170058 | 56 | 30 | 4.3 | 8.7 | 0.00 | 0.33 | 0.06 | 85 | 1008.3 |
| 20260505165558 | 56 | 35 | 3.5 | 8.7 | 0.00 | 0.33 | 0.06 | 85 | 1008.3 |
| 20260505165101 | 56 | 349 | 3.5 | 9.6 | 0.00 | 0.33 | 0.06 | 85 | 1008.3 |
| 20260505164557 | 56 | 31 | 3.5 | 9.6 | 0.00 | 0.33 | 0.06 | 84 | 1008.3 |
| 20260505164057 | 57 | 68 | 3.5 | 8.7 | 0.00 | 0.33 | 0.06 | 85 | 1008.3 |
| 20260505163556 | 57 | 92 | 5.2 | 8.7 | 0.00 | 0.33 | 0.06 | 84 | 1008.4 |
| 20260505163055 | 57 | 23 | 3.5 | 8.7 | 0.00 | 0.33 | 0.06 | 84 | 1008.3 |
| 20260505162600 | 57 | 51 | 2.6 | 7.8 | 0.00 | 0.33 | 0.06 | 84 | 1008.3 |
| 20260505162056 | 57 | 57 | 3.5 | 8.7 | 0.00 | 0.33 | 0.06 | 84 | 1008.3 |
| 20260505161559 | 57 | 22 | 4.3 | 8.7 | 0.00 | 0.33 | 0.06 | 84 | 1008.4 |
| 20260505161056 | 57 | 26 | 2.6 | 8.7 | 0.00 | 0.33 | 0.06 | 84 | 1008.4 |
| 20260505160557 | 58 | 32 | 2.6 | 8.7 | 0.00 | 0.33 | 0.06 | 84 | 1008.5 |
| 20260505153104 | 58 | 38 | 6.1 | 11.3 | 0.00 | 0.33 | 0.06 | 83 | 1008.6 |
| 20260505152557 | 59 | 46 | 4.3 | 11.3 | 0.00 | 0.33 | 0.06 | 83 | 1008.6 |
| 20260505152056 | 59 | 25 | 6.1 | 11.3 | 0.00 | 0.33 | 0.06 | 83 | 1008.5 |
| 20260505151558 | 59 | 18 | 5.2 | 9.6 | 0.00 | 0.33 | 0.06 | 84 | 1008.5 |
| 20260505151100 | 58 | 18 | 3.5 | 8.7 | 0.00 | 0.33 | 0.06 | 84 | 1008.6 |
| 20260505150557 | 58 | 40 | 4.3 | 7.8 | 0.00 | 0.33 | 0.06 | 84 | 1008.7 |
| 20260505140557 | 61 | 360 | 5.2 | 10.4 | 0.00 | 0.33 | 0.06 | 80 | 1008.9 |
| 20260505130116 | 60 | 332 | 3.5 | 9.6 | 0.00 | 0.33 | 0.06 | 83 | 1009.0 |
| 20260505124617 | 60 | 14 | 1.7 | 8.7 | 0.00 | 0.33 | 0.06 | 84 | 1009.2 |